Time,TemperatureF,DewpointF,PressureIn,WindDirection,WindDirectionDegrees,WindSpeedMPH,WindSpeedGustMPH,Humidity,HourlyPrecipIn,Conditions,Clouds,dailyrainin,SoftwareType,DateUTC
2013-11-22 00:04:00,58.8,57.1,30.30,East,86,0.0,2.0,94,0.00,,,0.00,Wunderground v.1.15,2013-11-22 05:04:00,
2013-11-22 00:08:00,58.9,57.2,30.30,East,101,1.0,3.0,94,0.00,,,0.00,Wunderground v.1.15,2013-11-22 05:08:00,
2013-11-22 00:19:00,59.0,57.3,30.31,East,101,1.0,1.0,94,0.00,,,0.00,Wunderground v.1.15,2013-11-22 05:19:00,
2013-11-22 00:29:00,59.1,57.4,30.30,East,100,0.0,0.0,94,0.00,,,0.00,Wunderground v.1.15,2013-11-22 05:29:00,
2013-11-22 00:44:00,59.0,57.3,30.30,East,100,0.0,0.0,94,0.00,,,0.00,Wunderground v.1.15,2013-11-22 05:44:00,
2013-11-22 00:59:00,59.0,57.3,30.29,East,100,1.0,1.0,94,0.00,,,0.00,Wunderground v.1.15,2013-11-22 05:59:00,
2013-11-22 01:03:00,59.0,57.3,30.29,East,98,1.0,1.0,94,0.00,,,0.00,Wunderground v.1.15,2013-11-22 06:03:00,
2013-11-22 01:09:00,59.1,57.7,30.29,East,96,1.0,1.0,95,0.00,,,0.00,Wunderground v.1.15,2013-11-22 06:09:00,
2013-11-22 01:24:00,58.9,57.2,30.29,East,96,0.0,0.0,94,0.00,,,0.00,Wunderground v.1.15,2013-11-22 06:24:00,
2013-11-22 01:28:00,58.9,57.5,30.29,East,86,1.0,1.0,95,0.00,,,0.00,Wunderground v.1.15,2013-11-22 06:28:00,
2013-11-22 01:39:00,58.9,57.5,30.30,ENE,68,1.0,1.0,95,0.00,,,0.00,Wunderground v.1.15,2013-11-22 06:39:00,
2013-11-22 01:53:00,58.8,57.1,30.30,ENE,68,1.0,1.0,94,0.00,,,0.00,Wunderground v.1.15,2013-11-22 06:53:00,
2013-11-22 02:04:00,58.7,57.0,30.29,ENE,68,1.0,2.0,94,0.00,,,0.00,Wunderground v.1.15,2013-11-22 07:04:00,
2013-11-22 02:19:00,58.6,57.2,30.29,ENE,68,1.0,1.0,95,0.00,,,0.00,Wunderground v.1.15,2013-11-22 07:19:00,
2013-11-22 02:34:00,58.8,57.4,30.29,East,100,1.0,1.0,95,0.00,,,0.00,Wunderground v.1.15,2013-11-22 07:34:00,
2013-11-22 02:48:00,58.8,57.4,30.28,East,100,0.0,0.0,95,0.00,,,0.00,Wunderground v.1.15,2013-11-22 07:48:00,
2013-11-22 02:59:00,58.9,57.5,30.29,East,100,0.0,0.0,95,0.00,,,0.00,Wunderground v.1.15,2013-11-22 07:59:00,
2013-11-22 03:14:00,59.0,57.6,30.28,East,100,0.0,0.0,95,0.00,,,0.00,Wunderground v.1.15,2013-11-22 08:14:00,
2013-11-22 03:29:00,58.9,57.5,30.27,East,100,0.0,0.0,95,0.00,,,0.00,Wunderground v.1.15,2013-11-22 08:29:00,
2013-11-22 03:39:00,58.9,57.5,30.27,East,96,1.0,2.0,95,0.00,,,0.00,Wunderground v.1.15,2013-11-22 08:39:00,
2013-11-22 03:54:00,58.8,57.4,30.27,East,90,1.0,1.0,95,0.00,,,0.00,Wunderground v.1.15,2013-11-22 08:54:00,
2013-11-22 04:09:00,58.7,57.3,30.27,East,87,2.0,2.0,95,0.00,,,0.00,Wunderground v.1.15,2013-11-22 09:09:00,
2013-11-22 04:24:00,58.5,57.1,30.28,ENE,66,2.0,2.0,95,0.00,,,0.00,Wunderground v.1.15,2013-11-22 09:24:00,
2013-11-22 04:34:00,58.4,57.0,30.28,ENE,66,2.0,2.0,95,0.00,,,0.00,Wunderground v.1.15,2013-11-22 09:34:00,
2013-11-22 04:49:00,58.2,56.8,30.28,NE,51,2.0,2.0,95,0.00,,,0.00,Wunderground v.1.15,2013-11-22 09:49:00,
2013-11-22 05:04:00,58.1,56.7,30.28,NE,51,1.0,1.0,95,0.00,,,0.00,Wunderground v.1.15,2013-11-22 10:04:00,
2013-11-22 05:19:00,58.0,56.6,30.28,NE,49,1.0,1.0,95,0.00,,,0.00,Wunderground v.1.15,2013-11-22 10:19:00,
2013-11-22 05:29:00,58.0,56.6,30.27,NE,49,0.0,0.0,95,0.00,,,0.00,Wunderground v.1.15,2013-11-22 10:29:00,
2013-11-22 05:44:00,58.0,56.9,30.26,ENE,78,1.0,1.0,96,0.00,,,0.00,Wunderground v.1.15,2013-11-22 10:44:00,
2013-11-22 05:58:00,57.8,56.7,30.27,ENE,76,1.0,1.0,96,0.00,,,0.00,Wunderground v.1.15,2013-11-22 10:58:00,
2013-11-22 06:09:00,57.8,56.7,30.27,ENE,74,0.0,0.0,96,0.00,,,0.00,Wunderground v.1.15,2013-11-22 11:09:00,
2013-11-22 06:24:00,57.8,56.7,30.28,ENE,75,0.0,0.0,96,0.00,,,0.00,Wunderground v.1.15,2013-11-22 11:24:00,
2013-11-22 06:39:00,57.8,56.7,30.28,ENE,75,0.0,2.0,96,0.00,,,0.00,Wunderground v.1.15,2013-11-22 11:39:00,
2013-11-22 06:49:00,57.8,56.7,30.28,ENE,75,0.0,2.0,96,0.00,,,0.00,Wunderground v.1.15,2013-11-22 11:49:00,
2013-11-22 07:04:00,57.7,56.6,30.28,ENE,75,1.0,1.0,96,0.00,,,0.00,Wunderground v.1.15,2013-11-22 12:04:00,
2013-11-22 07:19:00,57.7,56.6,30.28,ENE,75,0.0,0.0,96,0.00,,,0.00,Wunderground v.1.15,2013-11-22 12:19:00,
2013-11-22 07:29:00,57.7,56.6,30.28,ENE,73,1.0,2.0,96,0.00,,,0.00,Wunderground v.1.15,2013-11-22 12:29:00,
2013-11-22 07:44:00,57.8,56.7,30.28,ENE,62,0.0,0.0,96,0.00,,,0.00,Wunderground v.1.15,2013-11-22 12:44:00,
2013-11-22 07:59:00,57.8,56.7,30.28,ENE,61,1.0,1.0,96,0.00,,,0.00,Wunderground v.1.15,2013-11-22 12:59:00,
2013-11-22 08:14:00,58.1,57.0,30.28,ENE,71,1.0,1.0,96,0.00,,,0.00,Wunderground v.1.15,2013-11-22 13:14:00,
2013-11-22 08:24:00,58.4,57.3,30.28,ENE,71,0.0,0.0,96,0.00,,,0.00,Wunderground v.1.15,2013-11-22 13:24:00,
2013-11-22 08:39:00,58.6,57.5,30.28,ENE,71,0.0,0.0,96,0.00,,,0.00,Wunderground v.1.15,2013-11-22 13:39:00,
2013-11-22 08:54:00,59.2,58.1,30.28,ENE,71,0.0,0.0,96,0.00,,,0.00,Wunderground v.1.15,2013-11-22 13:54:00,
2013-11-22 09:09:00,59.7,58.6,30.28,ENE,71,0.0,0.0,96,0.00,,,0.00,Wunderground v.1.15,2013-11-22 14:09:00,
2013-11-22 09:19:00,60.2,59.1,30.28,ENE,71,0.0,0.0,96,0.00,,,0.00,Wunderground v.1.15,2013-11-22 14:19:00,
2013-11-22 09:34:00,60.9,59.8,30.28,East,89,0.0,1.0,96,0.00,,,0.00,Wunderground v.1.15,2013-11-22 14:34:00,
2013-11-22 09:49:00,61.8,60.4,30.27,SSE,148,2.0,2.0,95,0.00,,,0.00,Wunderground v.1.15,2013-11-22 14:49:00,
2013-11-22 10:04:00,62.8,61.0,30.27,South,172,1.0,1.0,94,0.00,,,0.00,Wunderground v.1.15,2013-11-22 15:04:00,
2013-11-22 10:19:00,63.9,61.5,30.27,SW,232,2.0,4.0,92,0.00,,,0.00,Wunderground v.1.15,2013-11-22 15:19:00,
2013-11-22 10:29:00,64.3,61.6,30.27,South,178,3.0,3.0,91,0.00,,,0.00,Wunderground v.1.15,2013-11-22 15:29:00,
2013-11-22 10:44:00,65.6,61.9,30.26,South,184,3.0,3.0,88,0.00,,,0.00,Wunderground v.1.15,2013-11-22 15:44:00,
2013-11-22 10:59:00,66.7,62.7,30.26,SW,227,2.0,2.0,87,0.00,,,0.00,Wunderground v.1.15,2013-11-22 15:59:00,
2013-11-22 11:14:00,68.1,63.4,30.25,SW,216,4.0,5.0,85,0.00,,,0.00,Wunderground v.1.15,2013-11-22 16:14:00,
2013-11-22 11:29:00,68.9,63.5,30.25,WSW,257,4.0,4.0,83,0.00,,,0.00,Wunderground v.1.15,2013-11-22 16:29:00,
2013-11-22 11:39:00,69.6,63.5,30.24,SW,219,4.0,8.0,81,0.00,,,0.00,Wunderground v.1.15,2013-11-22 16:39:00,
2013-11-22 11:54:00,71.2,63.6,30.23,SSW,208,4.0,7.0,77,0.00,,,0.00,Wunderground v.1.15,2013-11-22 16:54:00,
2013-11-22 12:09:00,72.1,64.9,30.23,WSW,244,6.0,9.0,78,0.00,,,0.00,Wunderground v.1.15,2013-11-22 17:09:00,
2013-11-22 12:24:00,71.3,63.7,30.22,SW,229,5.0,7.0,77,0.00,,,0.00,Wunderground v.1.15,2013-11-22 17:24:00,
2013-11-22 12:39:00,71.2,64.4,30.21,SW,227,5.0,6.0,79,0.00,,,0.00,Wunderground v.1.15,2013-11-22 17:39:00,
2013-11-22 12:49:00,71.0,63.4,30.20,SW,227,5.0,5.0,77,0.00,,,0.00,Wunderground v.1.15,2013-11-22 17:49:00,
2013-11-22 13:09:00,71.4,63.4,30.19,South,186,4.0,4.0,76,0.00,,,0.00,Wunderground v.1.15,2013-11-22 18:09:00,
2013-11-22 13:19:00,72.1,63.4,30.19,South,189,4.0,7.0,74,0.00,,,0.00,Wunderground v.1.15,2013-11-22 18:19:00,
2013-11-22 13:34:00,72.3,63.2,30.18,SSE,158,2.0,2.0,73,0.00,,,0.00,Wunderground v.1.15,2013-11-22 18:34:00,
2013-11-22 13:49:00,72.6,62.7,30.18,SW,236,3.0,3.0,71,0.00,,,0.00,Wunderground v.1.15,2013-11-22 18:49:00,
2013-11-22 14:04:00,72.6,63.1,30.17,SSE,164,3.0,3.0,72,0.00,,,0.00,Wunderground v.1.15,2013-11-22 19:04:00,
2013-11-22 14:19:00,71.4,63.4,30.17,South,171,3.0,3.0,76,0.00,,,0.00,Wunderground v.1.15,2013-11-22 19:19:00,
2013-11-22 14:29:00,71.2,63.6,30.17,SE,129,1.0,1.0,77,0.00,,,0.00,Wunderground v.1.15,2013-11-22 19:29:00,
2013-11-22 14:44:00,71.5,63.2,30.17,SSW,208,3.0,7.0,75,0.00,,,0.00,Wunderground v.1.15,2013-11-22 19:44:00,
2013-11-22 14:59:00,71.9,63.9,30.16,South,182,3.0,3.0,76,0.00,,,0.00,Wunderground v.1.15,2013-11-22 19:59:00,
2013-11-22 15:14:00,71.0,63.8,30.16,SSW,201,4.0,5.0,78,0.00,,,0.00,Wunderground v.1.15,2013-11-22 20:14:00,
2013-11-22 15:24:00,70.9,64.1,30.16,WSW,245,3.0,3.0,79,0.00,,,0.00,Wunderground v.1.15,2013-11-22 20:24:00,
2013-11-22 15:39:00,70.0,64.6,30.16,NE,40,1.0,1.0,83,0.00,,,0.00,Wunderground v.1.15,2013-11-22 20:39:00,
2013-11-22 15:54:00,69.1,64.7,30.17,WNW,295,2.0,2.0,86,0.23,,,0.03,Wunderground v.1.15,2013-11-22 20:54:00,
2013-11-22 16:09:00,68.2,64.2,30.16,WNW,291,1.0,1.0,87,0.00,,,0.03,Wunderground v.1.15,2013-11-22 21:09:00,
2013-11-22 16:19:00,67.9,64.5,30.16,ENE,65,1.0,1.0,89,0.00,,,0.03,Wunderground v.1.15,2013-11-22 21:19:00,
2013-11-22 16:34:00,67.6,64.6,30.15,ENE,76,0.0,1.0,90,0.00,,,0.03,Wunderground v.1.15,2013-11-22 21:34:00,
2013-11-22 16:49:00,67.1,64.4,30.15,SSE,155,2.0,2.0,91,0.00,,,0.04,Wunderground v.1.15,2013-11-22 21:49:00,
2013-11-22 16:59:00,66.7,64.0,30.15,SE,136,2.0,3.0,91,0.00,,,0.04,Wunderground v.1.15,2013-11-22 21:59:00,
2013-11-22 17:08:00,66.2,63.5,30.15,SSE,155,3.0,6.0,91,0.00,,,0.04,Wunderground v.1.15,2013-11-22 22:08:00,
2013-11-22 17:19:00,65.6,62.9,30.15,SSE,158,3.0,3.0,91,0.00,,,0.04,Wunderground v.1.15,2013-11-22 22:19:00,
2013-11-22 17:34:00,65.1,62.7,30.15,SE,145,2.0,2.0,92,0.00,,,0.04,Wunderground v.1.15,2013-11-22 22:34:00,
2013-11-22 17:44:00,64.7,62.3,30.15,SE,145,0.0,0.0,92,0.00,,,0.04,Wunderground v.1.15,2013-11-22 22:44:00,
2013-11-22 17:59:00,64.4,62.0,30.15,SE,145,0.0,0.0,92,0.00,,,0.04,Wunderground v.1.15,2013-11-22 22:59:00,
2013-11-22 18:14:00,64.0,61.6,30.14,SE,145,0.0,0.0,92,0.00,,,0.04,Wunderground v.1.15,2013-11-22 23:14:00,
2013-11-22 18:28:00,63.8,61.7,30.14,SE,145,0.0,0.0,93,0.00,,,0.04,Wunderground v.1.15,2013-11-22 23:28:00,
2013-11-22 18:39:00,63.6,61.5,30.15,SE,145,1.0,1.0,93,0.00,,,0.04,Wunderground v.1.15,2013-11-22 23:39:00,
2013-11-22 18:54:00,63.4,61.3,30.15,SE,145,0.0,0.0,93,0.00,,,0.04,Wunderground v.1.15,2013-11-22 23:54:00,
2013-11-22 19:09:00,63.3,61.2,30.14,SE,145,1.0,2.0,93,0.00,,,0.04,Wunderground v.1.15,2013-11-23 00:09:00,
2013-11-22 19:24:00,63.1,61.0,30.14,SE,146,1.0,1.0,93,0.00,,,0.04,Wunderground v.1.15,2013-11-23 00:24:00,
2013-11-22 19:34:00,63.0,61.2,30.14,SSW,196,1.0,3.0,94,0.00,,,0.04,Wunderground v.1.15,2013-11-23 00:34:00,
2013-11-22 19:49:00,63.1,61.3,30.14,SSW,196,2.0,2.0,94,0.00,,,0.04,Wunderground v.1.15,2013-11-23 00:49:00,
2013-11-22 20:04:00,62.9,61.1,30.13,South,188,2.0,2.0,94,0.00,,,0.04,Wunderground v.1.15,2013-11-23 01:04:00,
2013-11-22 20:19:00,63.1,61.3,30.13,SSW,206,2.0,2.0,94,0.00,,,0.04,Wunderground v.1.15,2013-11-23 01:19:00,
2013-11-22 20:29:00,63.1,61.3,30.13,SSW,198,3.0,5.0,94,0.00,,,0.04,Wunderground v.1.15,2013-11-23 01:29:00,
2013-11-22 20:44:00,63.3,61.5,30.13,SSW,209,3.0,3.0,94,0.00,,,0.04,Wunderground v.1.15,2013-11-23 01:44:00,
2013-11-22 20:59:00,63.4,61.6,30.12,SSW,196,4.0,4.0,94,0.00,,,0.04,Wunderground v.1.15,2013-11-23 01:59:00,
2013-11-22 21:14:00,63.4,61.6,30.12,SSW,202,4.0,4.0,94,0.00,,,0.04,Wunderground v.1.15,2013-11-23 02:14:00,
2013-11-22 21:29:00,63.5,61.7,30.12,SW,219,3.0,4.0,94,0.00,,,0.04,Wunderground v.1.15,2013-11-23 02:29:00,
2013-11-22 21:39:00,63.6,61.8,30.12,SW,214,3.0,5.0,94,0.00,,,0.04,Wunderground v.1.15,2013-11-23 02:39:00,
2013-11-22 21:54:00,63.9,62.1,30.12,SW,230,3.0,4.0,94,0.00,,,0.04,Wunderground v.1.15,2013-11-23 02:54:00,
2013-11-22 22:03:00,64.1,62.3,30.12,SW,222,3.0,4.0,94,0.00,,,0.04,Wunderground v.1.15,2013-11-23 03:03:00,
2013-11-22 22:14:00,64.2,62.4,30.13,SW,228,2.0,4.0,94,0.00,,,0.04,Wunderground v.1.15,2013-11-23 03:14:00,
2013-11-22 22:24:00,64.3,62.5,30.12,SW,221,3.0,3.0,94,0.00,,,0.04,Wunderground v.1.15,2013-11-23 03:24:00,
2013-11-22 22:33:00,64.3,62.5,30.12,SW,219,4.0,5.0,94,0.00,,,0.04,Wunderground v.1.15,2013-11-23 03:33:00,
2013-11-22 22:39:00,64.3,62.5,30.12,SW,215,4.0,4.0,94,0.00,,,0.04,Wunderground v.1.15,2013-11-23 03:39:00,
2013-11-22 22:54:00,64.4,62.6,30.11,SW,215,5.0,5.0,94,0.00,,,0.04,Wunderground v.1.15,2013-11-23 03:54:00,
2013-11-22 23:09:00,64.5,62.7,30.10,SSW,213,5.0,5.0,94,0.00,,,0.04,Wunderground v.1.15,2013-11-23 04:09:00,
2013-11-22 23:24:00,64.6,62.8,30.11,WSW,257,3.0,3.0,94,0.00,,,0.04,Wunderground v.1.15,2013-11-23 04:24:00,
2013-11-22 23:39:00,64.7,62.9,30.10,West,259,2.0,4.0,94,0.00,,,0.04,Wunderground v.1.15,2013-11-23 04:39:00,
2013-11-22 23:49:00,64.7,62.9,30.10,SW,233,3.0,3.0,94,0.00,,,0.04,Wunderground v.1.15,2013-11-23 04:49:00,